Location: Unspecified
(20.0000°S, 0.0000°E)
Time: 17:44:26
(UTC+00:00)

KKS-1 - Pass Details

Date: 01 September 2019
Orbit: 638 x 649 km, 98.3° (Epoch: 22 September)

Event Time Altitude Azimuth Distance (km) Brightness Sun altitude
Rises 18:44:13 0° 12° (NNE) 2,946 ? -13.1°
Reaches altitude 10° 18:46:25 10° 11° (N) 2,042 ? -13.6°
Maximum altitude 18:50:52 85° 285° (WNW) 657 ? -14.7°
Drops below altitude 10° 18:55:23 10° 193° (SSW) 2,060 ? -15.7°
Sets 18:57:36 0° 193° (SSW) 2,974 ? -16.3°
